CW5456 Weather Reports


Display with metric or nautical units.
time (UTC)temp
F
wind
direction
speed
MPH
gust
MPH
rain 1hr
in
rain 24hr
in
rain mn
in
humidity
%
barometer
mb
20260507023548 54 294 0.0 0.0 0.00 0.00 0.00 91 1018.3
20260507022548 54 294 0.0 0.0 0.00 0.00 0.00 91 1018.2
20260507022049 54 294 0.0 0.0 0.00 0.00 0.00 91 1018.3
20260507021549 54 294 0.0 0.0 0.00 0.00 0.00 91 1018.3
20260507021048 54 294 0.0 1.0 0.00 0.00 0.00 91 1018.3
20260507020548 54 294 0.0 1.0 0.00 0.00 0.00 91 1018.2
20260507020048 54 294 0.0 1.0 0.00 0.00 0.00 91 1018.3
20260507015048 54 294 0.0 0.0 0.00 0.00 0.00 91 1018.1
20260507014548 54 294 0.0 0.0 0.00 0.00 0.00 91 1018.1
20260507014048 54 294 0.0 0.0 0.00 0.00 0.00 91 1018.1
20260507012549 54 294 0.0 0.0 0.00 0.00 0.00 91 1018.2
20260507012047 54 294 0.0 0.0 0.00 0.00 0.00 92 1018.1
20260507011547 54 294 0.0 0.0 0.00 0.00 0.00 92 1018.1
20260507010547 54 294 0.0 0.0 0.00 0.00 0.00 92 1018.2
20260507010047 54 294 0.0 1.0 0.00 0.00 0.00 92 1018.3
20260507005047 54 294 0.0 1.0 0.00 0.00 0.00 93 1018.3
20260507004547 54 294 0.0 2.0 0.00 0.00 0.00 93 1018.3
20260507003547 54 294 0.0 4.0 0.00 0.00 0.00 93 1018.3
20260507003047 53 294 2.0 4.0 0.00 0.00 0.00 93 1018.2
20260507002548 53 294 2.0 4.0 0.00 0.00 0.00 93 1018.3
20260507002048 53 294 1.0 4.0 0.00 0.00 0.00 93 1018.3
20260507001547 54 294 3.0 4.0 0.00 0.00 0.00 94 1018.3
20260507001046 53 294 0.0 2.0 0.00 0.00 0.00 94 1018.2
20260507000547 53 294 0.0 2.0 0.00 0.00 0.00 94 1018.2
20260507000047 53 294 0.0 2.0 0.00 0.00 0.00 94 1018.2
20260506235546 53 294 0.0 3.0 0.00 0.00 0.00 94 1018.2
20260506235047 53 294 0.0 3.0 0.00 0.00 0.00 95 1018.2
20260506234547 53 294 2.0 3.0 0.00 0.00 0.00 95 1018.3
20260506234046 53 294 2.0 4.0 0.00 0.00 0.00 95 1018.3
20260506233546 53 294 3.0 4.0 0.00 0.00 0.00 95 1018.3
20260506233046 53 294 3.0 4.0 0.00 0.00 0.00 95 1018.3
20260506232546 52 294 2.0 5.0 0.00 0.00 0.00 95 1018.3
20260506232046 52 294 3.0 5.0 0.00 0.00 0.00 95 1018.4
20260506231046 52 294 4.0 8.0 0.00 0.00 0.00 95 1018.4
20260506230546 52 294 5.0 8.0 0.00 0.00 0.00 95 1018.5
20260506230046 53 294 5.0 7.0 0.00 0.00 0.00 95 1018.4
20260506225546 53 294 5.0 7.0 0.00 0.00 0.00 95 1018.4
20260506225045 53 294 4.0 5.0 0.00 0.00 0.00 95 1018.3
20260506224546 53 294 3.0 5.0 0.00 0.00 0.00 95 1018.4
20260506224046 52 294 4.0 7.0 0.00 0.00 0.00 95 1018.4
20260506223045 52 294 5.0 9.0 0.00 0.00 0.00 95 1018.5
20260506222546 52 294 8.0 9.0 0.00 0.00 0.00 95 1018.5
20260506222045 52 290 7.0 9.0 0.00 0.00 0.00 95 1018.5
20260506221545 52 291 7.0 9.0 0.00 0.00 0.00 94 1018.6
20260506220545 52 287 7.0 9.0 0.00 0.00 0.00 94 1018.5
20260506220045 52 285 8.0 9.0 0.00 0.00 0.00 94 1018.6
20260506215545 52 279 7.0 9.0 0.00 0.00 0.00 94 1018.6
20260506215045 52 283 8.0 10.0 0.00 0.00 0.00 94 1018.6
20260506214545 52 287 7.0 10.0 0.00 0.00 0.00 93 1018.6
20260506214045 52 300 9.0 11.0 0.00 0.00 0.00 93 1018.7
20260506213045 52 298 10.0 10.0 0.00 0.00 0.00 93 1018.7
20260506212545 52 329 5.0 9.0 0.00 0.00 0.00 93 1018.6
20260506212045 53 340 5.0 8.0 0.00 0.00 0.00 93 1018.6
20260506211545 53 330 6.0 8.0 0.00 0.00 0.00 92 1018.5
20260506210544 53 326 8.0 9.0 0.00 0.00 0.00 91 1018.5
20260506210045 53 249 8.0 9.0 0.00 0.00 0.00 90 1018.5
20260506205545 54 242 2.0 8.0 0.00 0.00 0.00 90 1018.5
20260506205044 54 242 3.0 8.0 0.00 0.00 0.00 89 1018.5
20260506204544 54 242 2.0 8.0 0.00 0.00 0.00 88 1018.7
20260506204044 55 238 5.0 8.0 0.00 0.00 0.00 87 1018.5
20260506203544 56 227 6.0 8.0 0.00 0.00 0.00 86 1018.4
20260506202544 57 165 0.0 5.0 0.00 0.00 0.00 86 1018.4
20260506202045 56 164 0.0 5.0 0.00 0.00 0.00 85 1018.4
20260506201544 57 169 0.0 6.0 0.00 0.00 0.00 85 1018.3
20260506201044 57 169 0.0 6.0 0.00 0.00 0.00 85 1018.2
20260506200544 57 156 6.0 7.0 0.00 0.00 0.00 86 1018.2
20260506200044 56 154 0.0 7.0 0.00 0.00 0.00 86 1018.2
20260506195543 57 158 0.0 8.0 0.00 0.00 0.00 86 1018.2
20260506195043 56 156 2.0 8.0 0.00 0.00 0.00 85 1018.2
20260506194544 56 136 0.0 8.0 0.00 0.00 0.00 85 1018.2
20260506194043 56 132 5.0 5.0 0.00 0.00 0.00 85 1018.2
20260506193543 56 131 2.0 8.0 0.00 0.00 0.00 86 1018.2
20260506192543 56 111 1.0 12.0 0.00 0.00 0.00 85 1018.1
20260506192043 56 123 4.0 12.0 0.00 0.00 0.00 85 1018.0
20260506191543 56 136 2.0 12.0 0.00 0.00 0.00 84 1017.9
20260506191043 56 135 10.0 12.0 0.00 0.00 0.00 84 1018.0
20260506190542 57 118 7.0 14.0 0.00 0.00 0.00 84 1017.9
20260506190043 57 144 5.0 14.0 0.00 0.00 0.00 84 1017.9
20260506185543 57 106 10.0 14.0 0.00 0.00 0.00 84 1017.8
20260506185043 57 125 5.0 14.0 0.00 0.00 0.00 84 1017.8
20260506184543 57 164 3.0 11.0 0.00 0.00 0.00 85 1017.8
20260506184042 57 137 0.0 9.0 0.00 0.00 0.00 85 1017.8
20260506183543 56 115 2.0 8.0 0.00 0.00 0.00 86 1017.7
20260506183043 56 135 3.0 10.0 0.00 0.00 0.00 87 1017.8
20260506182543 56 136 4.0 12.0 0.00 0.00 0.00 87 1017.8
20260506182042 56 128 5.0 13.0 0.00 0.00 0.00 87 1017.8
20260506181542 56 117 9.0 13.0 0.00 0.00 0.00 87 1017.7
20260506181042 56 128 2.0 10.0 0.00 0.00 0.00 88 1017.8
20260506180542 56 138 1.0 5.0 0.00 0.00 0.00 88 1017.7
20260506180042 56 136 0.0 3.0 0.00 0.00 0.00 89 1017.8
20260506175542 56 137 0.0 8.0 0.00 0.00 0.00 88 1017.7
20260506175042 56 137 1.0 8.0 0.00 0.00 0.00 88 1017.7
20260506174541 56 139 0.0 4.0 0.00 0.00 0.00 88 1017.7
20260506174041 56 139 3.0 7.0 0.00 0.00 0.00 88 1017.7
20260506173541 56 139 0.0 7.0 0.00 0.00 0.00 88 1017.6
20260506173041 56 138 4.0 10.0 0.00 0.00 0.00 87 1017.5
20260506172541 56 132 4.0 10.0 0.00 0.00 0.00 87 1017.3
20260506171541 56 131 6.0 12.0 0.00 0.00 0.00 87 1017.2
20260506170541 56 123 2.0 10.0 0.00 0.00 0.00 87 1017.3
20260506170042 56 123 7.0 11.0 0.00 0.00 0.00 88 1017.4
20260506165542 56 138 9.0 11.0 0.00 0.00 0.00 89 1017.5
20260506165041 56 129 4.0 5.0 0.00 0.00 0.00 89 1017.5
20260506164541 56 132 2.0 5.0 0.00 0.00 0.00 89 1017.4
20260506164041 55 131 1.0 4.0 0.00 0.00 0.00 90 1017.4
20260506163541 55 132 0.0 4.0 0.00 0.00 0.00 90 1017.4
20260506163041 55 131 0.0 5.0 0.00 0.00 0.00 90 1017.4
20260506162541 55 131 0.0 5.0 0.00 0.00 0.00 90 1017.5
20260506162041 55 132 1.0 8.0 0.00 0.00 0.00 90 1017.7
20260506161541 55 132 0.0 8.0 0.00 0.00 0.00 90 1017.6
20260506160540 55 129 4.0 9.0 0.00 0.00 0.00 90 1017.4
20260506160040 54 141 2.0 8.0 0.00 0.00 0.00 91 1017.4
20260506155040 54 140 0.0 13.0 0.00 0.00 0.00 91 1017.3
20260506154540 54 123 0.0 14.0 0.00 0.00 0.00 91 1017.2
20260506154040 54 115 11.0 14.0 0.00 0.00 0.00 91 1016.9
20260506153040 54 119 1.0 7.0 0.00 0.00 0.00 91 1016.9
20260506152539 54 120 3.0 11.0 0.00 0.00 0.00 91 1016.9
20260506152040 54 125 7.0 11.0 0.00 0.00 0.00 92 1016.9
20260506151540 54 115 9.0 9.0 0.00 0.00 0.00 92 1016.8
20260506151040 54 117 7.0 10.0 0.00 0.00 0.00 92 1016.8
20260506150540 54 131 5.0 10.0 0.00 0.00 0.00 92 1016.9
20260506150040 54 120 0.0 9.0 0.00 0.00 0.00 92 1017.0
20260506145540 54 120 1.0 10.0 0.00 0.00 0.00 92 1017.0
20260506145040 54 124 7.0 10.0 0.00 0.00 0.00 92 1017.0
20260506144539 54 123 7.0 9.0 0.00 0.00 0.00 92 1017.1
20260506143540 54 131 4.0 11.0 0.00 0.00 0.00 93 1017.0
20260506143040 53 133 1.0 11.0 0.00 0.00 0.00 93 1016.8
20260506142540 53 111 4.0 9.0 0.00 0.00 0.00 93 1016.6
20260506142040 53 115 2.0 9.0 0.00 0.00 0.00 93 1016.6
20260506141039 53 124 7.0 10.0 0.00 0.00 0.00 94 1016.8
20260506140039 53 121 4.0 9.0 0.00 0.00 0.00 94 1016.7
20260506135539 53 117 8.0 10.0 0.00 0.00 0.00 94 1016.7
20260506134539 52 105 3.0 10.0 0.00 0.00 0.00 95 1016.6
20260506134039 52 121 1.0 9.0 0.00 0.00 0.00 95 1016.5
20260506133538 52 142 5.0 8.0 0.00 0.00 0.00 95 1016.6
20260506132540 52 111 4.0 10.0 0.00 0.00 0.00 96 1016.6
20260506132038 52 120 5.0 10.0 0.00 0.00 0.00 96 1016.7
20260506131539 51 298 2.0 4.0 0.00 0.00 0.00 96 1016.7
20260506131038 51 298 0.0 3.0 0.00 0.00 0.00 95 1016.7
20260506125538 51 304 0.0 0.0 0.00 0.00 0.00 95 1016.6
20260506125038 51 304 0.0 0.0 0.00 0.00 0.00 95 1016.6
20260506124538 51 304 0.0 0.0 0.00 0.00 0.00 95 1016.4
20260506124037 51 304 0.0 1.0 0.00 0.00 0.00 95 1016.3
20260506123538 51 304 0.0 1.0 0.00 0.00 0.00 95 1016.4
20260506123039 51 304 0.0 1.0 0.00 0.00 0.00 95 1016.3
20260506122538 51 304 0.0 0.0 0.00 0.00 0.00 95 1016.2
20260506121037 51 304 0.0 0.0 0.00 0.00 0.00 95 1016.4
20260506120537 51 304 0.0 0.0 0.00 0.00 0.00 95 1016.3
20260506120037 51 304 0.0 0.0 0.00 0.00 0.00 95 1016.3
20260506115537 51 304 0.0 0.0 0.00 0.00 0.00 95 1016.3
20260506115037 51 304 0.0 0.0 0.00 0.00 0.00 95 1016.2
20260506114537 51 304 0.0 0.0 0.00 0.00 0.00 95 1016.2
20260506114037 51 304 0.0 0.0 0.00 0.00 0.00 95 1016.2
20260506113537 51 304 0.0 0.0 0.00 0.00 0.00 95 1016.1
20260506112537 51 304 0.0 0.0 0.00 0.00 0.00 95 1016.0
20260506112037 51 304 0.0 2.0 0.00 0.00 0.00 95 1016.0
20260506111537 51 304 0.0 2.0 0.00 0.00 0.00 95 1015.9
20260506110537 51 304 0.0 1.0 0.00 0.00 0.00 95 1015.9
20260506110036 51 304 0.0 0.0 0.00 0.00 0.00 95 1015.7
20260506105037 51 304 0.0 3.0 0.00 0.00 0.00 95 1015.6
20260506104536 51 304 0.0 3.0 0.00 0.00 0.00 95 1015.5
20260506104037 51 304 3.0 3.0 0.00 0.00 0.00 95 1015.4
20260506103536 51 304 2.0 2.0 0.00 0.00 0.00 95 1015.4
20260506103036 51 304 0.0 0.0 0.00 0.00 0.00 95 1015.5
20260506102536 51 304 0.0 0.0 0.00 0.00 0.00 95 1015.5
20260506102036 51 304 0.0 0.0 0.00 0.00 0.00 95 1015.4
20260506101536 51 304 0.0 1.0 0.00 0.00 0.00 95 1015.4
20260506100536 51 304 1.0 4.0 0.00 0.00 0.00 95 1015.3
20260506100036 51 304 1.0 4.0 0.00 0.00 0.00 95 1015.4
20260506095536 51 304 3.0 4.0 0.00 0.00 0.00 95 1015.3
20260506095035 51 304 3.0 4.0 0.00 0.00 0.00 95 1015.3
20260506094536 50 304 1.0 2.0 0.00 0.00 0.00 95 1015.3
20260506094035 50 304 0.0 3.0 0.00 0.00 0.00 95 1015.3
20260506093535 50 304 2.0 4.0 0.00 0.00 0.00 95 1015.2
20260506093035 50 304 2.0 4.0 0.00 0.00 0.00 95 1015.1
20260506092035 50 304 3.0 5.0 0.00 0.00 0.00 94 1015.1
20260506091535 51 304 3.0 5.0 0.00 0.00 0.00 95 1015.1
20260506090535 51 304 1.0 5.0 0.00 0.00 0.00 95 1015.1
20260506090035 51 304 3.0 5.0 0.00 0.00 0.00 95 1015.2
20260506085035 51 304 1.0 5.0 0.00 0.00 0.00 94 1015.1
20260506084535 51 304 4.0 5.0 0.00 0.00 0.00 94 1015.0
20260506084035 51 304 3.0 4.0 0.00 0.00 0.00 95 1015.0
20260506083535 50 304 1.0 4.0 0.00 0.00 0.00 94 1014.9
20260506083034 50 304 2.0 3.0 0.00 0.00 0.00 94 1014.9
20260506082035 50 304 0.0 3.0 0.00 0.00 0.00 94 1014.9
20260506081535 50 304 0.0 3.0 0.00 0.00 0.00 93 1014.7
20260506081034 50 304 0.0 0.0 0.00 0.00 0.00 93 1014.8
20260506080535 50 304 0.0 0.0 0.00 0.00 0.00 93 1014.6
20260506073034 51 305 0.0 3.0 0.00 0.00 0.00 93 1014.4
20260506072534 51 305 0.0 6.0 0.00 0.00 0.00 93 1014.4
20260506072035 52 305 2.0 6.0 0.00 0.00 0.00 93 1014.3
20260506071534 52 304 4.0 6.0 0.00 0.00 0.00 93 1014.3
20260506070534 52 304 5.0 8.0 0.00 0.00 0.00 93 1014.2
20260506070104 52 304 6.0 8.0 0.00 0.00 0.00 93 1014.3
20260506062034 52 303 5.0 8.0 0.00 0.00 0.00 93 1014.0
20260506061603 52 296 4.0 9.0 0.00 0.00 0.00 93 1014.1
20260506061033 52 298 4.0 10.0 0.00 0.00 0.00 93 1014.1
20260506060603 52 299 8.0 11.0 0.00 0.00 0.00 93 1014.1
20260506051103 52 268 1.0 8.0 0.00 0.00 0.00 92 1013.6
20260506050602 52 267 1.0 7.0 0.00 0.00 0.00 92 1013.5
20260506044602 53 264 2.0 8.0 0.00 0.00 0.00 91 1013.3
20260506044102 53 264 4.0 4.0 0.00 0.00 0.00 91 1013.2
20260506043602 53 264 0.0 3.0 0.00 0.00 0.00 91 1013.2
20260506043102 53 264 2.0 3.0 0.00 0.00 0.00 91 1013.1
20260506042602 53 264 0.0 4.0 0.00 0.00 0.00 91 1013.1
20260506042102 53 264 0.0 4.0 0.00 0.00 0.00 91 1013.0
20260506041601 53 264 2.0 3.0 0.00 0.00 0.00 91 1012.9
20260506041101 53 264 1.0 3.0 0.00 0.00 0.00 91 1012.9
20260506040602 53 264 1.0 2.0 0.00 0.00 0.00 91 1012.8
20260506035101 53 264 0.0 0.0 0.00 0.00 0.00 90 1012.8
20260506034602 53 264 0.0 0.0 0.00 0.00 0.00 90 1012.8
20260506034101 53 264 0.0 3.0 0.00 0.00 0.00 90 1012.8
20260506033101 54 264 0.0 1.0 0.00 0.00 0.00 90 1012.8
20260506032601 54 264 0.0 4.0 0.00 0.00 0.00 90 1012.7
20260506032101 54 264 0.0 4.0 0.00 0.00 0.00 90 1012.8
20260506031600 54 264 0.0 3.0 0.00 0.00 0.00 90 1012.7
20260506031101 54 264 0.0 3.0 0.00 0.00 0.00 90 1012.7
20260506030602 54 264 0.0 3.0 0.00 0.00 0.00 90 1012.7
20260506025601 54 264 3.0 9.0 0.00 0.00 0.00 90 1012.7
20260506025101 54 267 0.0 9.0 0.00 0.00 0.00 89 1012.7
20260506024100 54 269 1.0 8.0 0.00 0.00 0.00 89 1012.6